Regional Weather Roundup
Issued by NWS

Home | Current Version | Previous Version | Text Only | Print | Product List | Glossary Off
Versions: 1 2 3 4 5 6 7 8 9 10 11 12 13 14 15 16 17 18 19 20 21 22 23 24 25 26 27 28 29 30 31 32 33 34 35 36 37 38 39 40 41 42 43 44 45 46 47 48 49 50

943
ASUS44 KJAN 291510
RWRMS

MISSISSIPPI HOURLY WEATHER ROUNDUP
NATIONAL WEATHER SERVICE JACKSON MS
900 AM CST THU JAN 29 2015

NOTE: "FAIR: INDICATES FEW OR NO CLOUDS BELOW 12,000 FEET WITH NO
SIGNIFICANT WEATHER AND/OR OBSTRUCTIONS TO VISIBILITY.

MSZ001>002-007>008-010>013-018>021-025>028-034>036-291600-
NORTHWEST MISSISSIPPI

CITY           SKY/WX    TMP DP  RH WIND       PRES   REMARKS
CLARKSDALE     FAIR      55  48  76 S14       30.12S
CLEVELAND      FAIR      55  51  87 SW14      30.14R
GREENWOOD      PTSUNNY   57  46  66 SW16      30.16R
GREENVILLE     MOSUNNY   57  49  74 SW16      30.14R
GRENADA        FAIR      59  45  58 SW8G17    30.14R
OLIVE BRANCH   PTSUNNY   54  46  76 SW16      30.09R
OXFORD         FAIR      55  43  62 SW8       30.14R
TUNICA         CLOUDY    54  46  76 S13       30.11R
$$

MSZ003>006-009-014>017-022>024-029>033-037>039-291600-
NORTHEAST MISSISSIPPI

CITY           SKY/WX    TMP DP  RH WIND       PRES   REMARKS
COLUMBUS AFB   CLOUDY    49  37  61 S13G20    30.20R
CORINTH        CLOUDY    52  34  50 S9G16     30.10R
GOLDN TRIANGLE CLOUDY    46  37  71 S12       30.19S
STARKVILLE     FAIR      48  37  66 S7        30.19R
TUPELO         PTSUNNY   50  34  54 SW13      30.15R
$$

MSZ040-058-291600-
CENTRAL MISSISSIPPI

CITY           SKY/WX    TMP DP  RH WIND       PRES   REMARKS
JACKSON INTL   MOSUNNY   57  49  74 S12       30.21S
JACKSON HAWKNS NOT AVBL
MERIDIAN KEY   SUNNY     52  45  77 S14       30.25R
MERIDIAN NAS   PTSUNNY   54  45  71 S8        30.24S
RAYMOND        PTSUNNY   57  52  82 S10G17    30.21R
VICKSBURG      PTSUNNY   58  53  84 SW12G22   30.20R
$$

MSZ059>079-291600-
SOUTH MISSISSIPPI

CITY           SKY/WX    TMP DP  RH WIND       PRES   REMARKS
BROOKHAVEN       N/A     55  52  88 S7        30.25R
HATTIESBURG    SUNNY     51  44  77 CALM      30.27S
MCCOMB         PTSUNNY   55  50  83 VRB5      30.25R
NATCHEZ        CLOUDY    57  52  82 S10       30.23R
PINE BELT      SUNNY     54  46  76 S12       30.26R
$$

MSZ080>082-291600-
COASTAL MISSISSIPPI

CITY           SKY/WX    TMP DP  RH WIND       PRES   REMARKS
BAY ST LOUIS   SUNNY     55  48  76 CALM      30.26R
BILOXI         SUNNY     62  54  74 S7        30.26R
PASCAGOULA     SUNNY     59  54  83 SE3       30.27S
GULFPORT       SUNNY     60  53  77 S8        30.26R
$$



USA.gov is the U.S. government's official web portal to all federal, state and local government web resources and services.